Change the Weather History Date:

Friday, August 2, 2013

  Actual Average Record
Temperature  
Mean Temperature 68 °F -  
Max Temperature 78 °F 77 °F 95 °F (2007)
Min Temperature 57 °F 56 °F 57 °F (1996)
Cooling Degree Days 2    
Growing Degree Days 18 (Base 50)    
Moisture  
Dew Point 57 °F    
Average Humidity 68    
Maximum Humidity 83    
Minimum Humidity 41    
Precipitation  
Precipitation 0.02 in 0.11 in - ()
Sea Level Pressure  
Sea Level Pressure 29.84 in    
Wind  
Wind Speed 8 mph ()    
Max Wind Speed 28 mph    
Max Gust Speed 37 mph    
Visibility 14.4 miles    
Events Rain , Thunderstorm    
Averages and records for this station are not official NWS values.
T = Trace of Precipitation, MM = Missing Value Source: Averaged Metar Reports

Daily Weather History Graph

Daily Weather History Graph

Search for Another Location

Airport or City:

Trip Planner

Search our weather history database for the weather conditions in past years. The results will help you decide how hot, cold, wet, or windy it might be!

Date:

Astronomy

Aug. 02, 2013 Rise Set
Actual Time 6:08 AM EDT 8:39 PM EDT
Civil Twilight 5:36 AM EDT 9:12 PM EDT
Nautical Twilight 4:55 AM EDT 9:52 PM EDT
Astronomical Twilight 4:09 AM EDT 10:38 PM EDT
Moon 2:27 AM EDT (8/2) 5:37 PM EDT (8/2)
Length of Visible Light 15h 36m
Length of Day
14h 31m
Waning Crescent, 16% of the Moon is Illuminated
Aug 2
Waning Crescent
Aug 6
New
Aug 14
First Quarter
Aug 20
Full
Aug 28
Last Quarter

Hourly Weather History & Observations

Time (EDT) Temp. Dew Point Humidity Pressure Visibility Wind Dir Wind Speed Gust Speed Precip Events Conditions
12:00 AM 64.4 °F 55.4 °F 73% 29.87 in 15.0 mi WNW 6.9 mph - N/A   Clear
1:00 AM 62.6 °F 55.4 °F 77% 29.87 in 15.0 mi WNW 6.9 mph - N/A   Clear
2:00 AM 62 °F 55 °F 71% 29.87 in 15 mi WNW 5.8 mph - -  
2:00 AM 62.6 °F 55.4 °F 77% 29.87 in 15.0 mi WNW 5.8 mph - N/A   Clear
3:00 AM 60.8 °F 55.4 °F 82% 29.86 in 15.0 mi Calm Calm - N/A   Partly Cloudy
4:00 AM 59.0 °F 53.6 °F 82% 29.86 in 15.0 mi West 3.5 mph - N/A   Partly Cloudy
5:00 AM 60.8 °F 55.4 °F 82% 29.85 in 15.0 mi SW 2.3 mph - N/A   Partly Cloudy
6:00 AM 59.0 °F 53.6 °F 82% 29.86 in 15.0 mi WSW 4.6 mph - N/A   Scattered Clouds
7:00 AM 62.6 °F 55.4 °F 77% 29.88 in 15.0 mi WSW 3.5 mph - N/A   Mostly Cloudy
8:00 AM 64 °F 57 °F 73% 29.89 in 15 mi NW 3.5 mph - -   Scattered Clouds
8:00 AM 64.4 °F 57.2 °F 77% 29.88 in 15.0 mi West 2.3 mph - N/A   Mostly Cloudy
9:00 AM 68.0 °F 57.2 °F 68% 29.87 in 15.0 mi WSW 4.6 mph - N/A   Mostly Cloudy
10:00 AM 69.8 °F 57.2 °F 64% 29.87 in 15.0 mi NW 5.8 mph - N/A   Scattered Clouds
11:00 AM 73.4 °F 59.0 °F 61% 29.86 in 15.0 mi NNW 4.6 mph - N/A   Mostly Cloudy
12:00 PM 77.0 °F 57.2 °F 50% 29.86 in 15.0 mi WSW 12.7 mph - N/A   Mostly Cloudy
1:00 PM 75.2 °F 53.6 °F 47% 29.85 in 15.0 mi West 16.1 mph 21.9 mph N/A   Mostly Cloudy
1:44 PM 75.2 °F 53.6 °F 47% 29.84 in 15.0 mi West 20.7 mph 27.6 mph N/A Rain Light Rain Showers
2:00 PM 74 °F 55 °F 41% 29.85 in 15 mi West 12.7 mph - - Rain Light Rain Showers
2:00 PM 73.4 °F 55.4 °F 53% 29.85 in 15.0 mi WNW 11.5 mph 17.3 mph N/A   Mostly Cloudy
2:42 PM 77.0 °F 55.4 °F 47% 29.83 in 15.0 mi SW 17.3 mph - N/A   Mostly Cloudy
3:00 PM 78.8 °F 55.4 °F 44% 29.83 in 15.0 mi West 19.6 mph - N/A   Mostly Cloudy
4:00 PM 78.8 °F 57.2 °F 47% 29.81 in 15.0 mi WSW 18.4 mph 24.2 mph N/A   Mostly Cloudy
4:51 PM 75.2 °F 55.4 °F 50% 29.81 in 15.0 mi WSW 20.7 mph 27.6 mph N/A Rain Light Rain Showers
5:00 PM 71.6 °F 59.0 °F 64% 29.82 in 15.0 mi SW 13.8 mph 29.9 mph N/A Rain Light Rain Showers
5:27 PM 73.4 °F 57.2 °F 57% 29.81 in 15.0 mi SW 17.3 mph 27.6 mph N/A   Mostly Cloudy
5:57 PM 73.4 °F 59.0 °F 61% 29.82 in 12.0 mi SSW 8.1 mph - N/A Rain , Thunderstorm Light Thunderstorms and Rain
6:00 PM 69.8 °F 57.2 °F 64% 29.83 in 12.0 mi SW 27.6 mph 36.8 mph N/A Rain , Thunderstorm Light Thunderstorms and Rain
6:28 PM 68.0 °F 59.0 °F 73% 29.82 in 15.0 mi SW 9.2 mph 18.4 mph N/A   Overcast
6:48 PM 68.0 °F 59.0 °F 73% 29.82 in 12.0 mi SW 16.1 mph - N/A Rain Light Rain Showers
6:54 PM 68.0 °F 59.0 °F 73% 29.82 in 8.0 mi SSW 16.1 mph 21.9 mph N/A Rain , Thunderstorm Heavy Thunderstorms and Rain
7:00 PM 66.2 °F 59.0 °F 78% 29.82 in 12.0 mi SSW 13.8 mph 21.9 mph N/A Rain , Thunderstorm Light Thunderstorms and Rain
7:42 PM 66.2 °F 57.2 °F 73% 29.80 in 15.0 mi SW 12.7 mph 24.2 mph N/A Rain Light Rain Showers
8:00 PM 64.4 °F 59.0 °F 83% 29.81 in 15.0 mi WSW 5.8 mph - N/A   Mostly Cloudy
8:45 PM 66.2 °F 60.8 °F 83% 29.82 in 12.0 mi WSW 16.1 mph 23.0 mph N/A Rain Light Rain Showers
9:00 PM 66.2 °F 60.8 °F 83% 29.82 in 15.0 mi SW 11.5 mph 21.9 mph N/A Rain Light Rain Showers
9:47 PM 64.4 °F 59.0 °F 83% 29.82 in 15.0 mi West 8.1 mph 20.7 mph N/A   Mostly Cloudy
10:00 PM 66.2 °F 59.0 °F 78% 29.83 in 15.0 mi NNW 11.5 mph - N/A   Mostly Cloudy
11:00 PM 64.4 °F 59.0 °F 83% 29.83 in 15.0 mi WNW 6.9 mph - N/A   Partly Cloudy